This demonstration page uses our WeatherBlox Daily Observations layout. Learn more.

Left ArrowRight Arrow

36.19886, -115.1175

Hourly Observations for August 13, 2015

Temp ( °F °C ) Dew Point ( °F °C ) Humidity (%) Winds ( mph kmh ) Pressure ( in mb ) Visibility ( mi km ) Precip ( " mm )
12:53 am 00:53 Clear 90 32.2 58 14.4 34 34 Calm 29.98 1015 10 16 0.00 0.00
1:53 am 01:53 Clear 88 31.1 59 15 38 38 Calm 29.97 1015 10 16 0.00 0.00
2:53 am 02:53 Clear 86 30 58 14.4 39 39 Calm 29.97 1015 10 16 0.00 0.00
3:53 am 03:53 Clear 85 29.4 58 14.4 40 40 Calm 29.98 1015 10 16 0.00 0.00
4:53 am 04:53 Clear 85 29.4 59 15 42 42 Calm 29.98 1015 10 16 0.00 0.00
5:53 am 05:53 Clear 85 29.4 59 15 42 42 SW 5 7 29.99 1016 10 16 0.00 0.00
6:53 am 06:53 Sunny 86 30 59 15 40 40 WSW 5 7 30.01 1016 10 16 0.00 0.00
7:53 am 07:53 Sunny 89 31.7 59 15 36 36 Calm 30.01 1016 10 16 0.00 0.00
8:53 am 08:53 Sunny 91 32.8 59 15 34 34 S 3 6 30.02 1017 10 16 0.00 0.00
9:53 am 09:53 Sunny 95 35 58 14.4 29 29 VRB 6 9 30.02 1017 10 16 0.00 0.00
10:53 am 10:53 Sunny 96 35.6 58 14.4 28 28 SE 10 17 30.01 1016 10 16 0.00 0.00
11:53 am 11:53 Sunny 98 36.7 58 14.4 26 26 SE 7 11 29.98 1015 10 16 0.00 0.00
12:53 pm 12:53 Sunny 100 37.8 57 13.9 24 24 SE 9 15 29.95 1014 10 16 0.00 0.00
1:53 pm 13:53 Sunny 102 38.9 55 12.8 21 21 ESE 10 17 29.93 1013 10 16 0.00 0.00
2:53 pm 14:53 Sunny 100 37.8 55 12.8 22 22 SSE 6 9 29.92 1013 10 16 0.00 0.00
3:53 pm 15:53 Mostly Cloudy with Light Rain 86 30 63 17.2 46 46 SE 15 24 29.97 1015 10 16 0.00 0.03
4:44 pm 16:44 Mostly Cloudy with Light Rain 88 31 59 15 38 38 SE 15 24 29.85 1011 2 3 0.00 0.00
4:53 pm 16:53 Mostly Cloudy with Light Rain 91 32.8 56 13.3 31 31 ESE 12 19 29.95 1014 8 13 0.00 0.03
5:53 pm 17:53 Mostly Sunny 89 31.7 60 15.6 38 38 S 3 6 29.96 1015 10 16 0.00 0.03
6:53 pm 18:53 Mostly Sunny 90 32.2 60 15.6 37 37 WNW 3 6 29.93 1014 10 16 0.00 0.00
7:53 pm 19:53 Clear 88 31.1 60 15.6 39 39 S 16 26 29.96 1014 10 16 0.00 0.00
8:53 pm 20:53 Clear 86 30 63 17.2 46 46 W 5 7 29.96 1014 10 16 0.00 0.00
9:53 pm 21:53 Clear 85 29.4 65 18.3 51 51 N 6 9 29.94 1014 10 16 0.00 0.00
10:53 pm 22:53 Clear 83 28.3 66 18.9 57 57 S 7 11 29.94 1014 10 16 0.00 0.00
11:53 pm 23:53 Clear 84 28.9 64 17.8 51 51 SW 5 7 29.94 1014 10 16 0.00 0.00

Powered by AerisWeather